Location: *
(37.5724°S, 58.0067°E)
Time: 09:32:56
(UTC+00:00)

Cosmos 1980 - Pass Details

Date: 01 February 2021
Orbit: 840 x 846 km, 71.0° (Epoch: 07 March)

Event Time Altitude Azimuth Distance (km) Brightness Sun altitude
Rises 21:10:00 0° 204° (SSW) 3,439 7.5 -34.4°
Reaches altitude 10° 21:12:28 10° 205° (SSW) 2,496 6.7 -34.3°
Enters shadow 21:15:46 36° 210° (SSW) 1,329 4.9 -34.1°
